Hinesville, GA

5:35 AM EDT on September 25, 2016 (GMT -0400)
Wright Army Air Field

Weather History for KLHW - December, 2013

Change the Weather History Date:

Sunday, December 29, 2013

  Actual Average Record
Temperature  
Mean Temperature 62 °F -  
Max Temperature 71 °F 64 °F 80 °F (1984)
Min Temperature 52 °F 42 °F 23 °F (1977)
Degree Days  
Heating Degree Days 3    
Growing Degree Days 12 (Base 50)    
Moisture  
Dew Point 64 °F    
Average Humidity 99    
Maximum Humidity 100    
Minimum Humidity 92    
Precipitation  
Precipitation 1.22 in - - ()
Sea Level Pressure  
Sea Level Pressure 29.91 in    
Wind  
Wind Speed 6 mph (SSW)    
Max Wind Speed 17 mph    
Max Gust Speed 25 mph    
Visibility 8 miles    
Events Rain    
Averages and records for this station are not official NWS values.
T = Trace of Precipitation, MM = Missing Value Source: NWS Daily Summary

Daily Weather History Graph

Daily Weather History Graph

Search for Another Location

Airport or City:

Trip Planner

Search our weather history database for the weather conditions in past years. The results will help you decide how hot, cold, wet, or windy it might be!

Date:

Astronomy

Dec. 29, 2013 Rise Set
Actual Time 7:25 AM EST 5:31 PM EST
Civil Twilight 6:58 AM EST 5:58 PM EST
Nautical Twilight 6:28 AM EST 6:28 PM EST
Astronomical Twilight 5:58 AM EST 6:58 PM EST
Moon 4:12 AM EST (12/29) 3:04 PM EST (12/29)
Length of Visible Light 10h 59m
Length of Day
10h 05m
Waning Crescent, 11% of the Moon is Illuminated
Dec 29
Waning Crescent
Jan 1
New
Jan 7
First Quarter
Jan 15
Full
Jan 24
Last Quarter

Hourly Weather History & Observations

Time (EST) Temp. Dew Point Humidity Pressure Visibility Wind Dir Wind Speed Gust Speed Precip Events Conditions
12:18 AM 57.2 °F 57.2 °F 100% 30.01 in 3.0 mi ESE 3.5 mph - N/A   Overcast
12:38 AM 57.2 °F 57.2 °F 100% 30.00 in 2.5 mi Calm Calm - N/A   Overcast
12:43 AM 57.2 °F 57.2 °F 100% 30.00 in 3.0 mi Calm Calm - N/A   Overcast
12:53 AM 57.2 °F 57.2 °F 100% 30.00 in 5.0 mi Calm Calm - N/A   Overcast
12:58 AM 57.0 °F 57.0 °F 100% 30.00 in 7.0 mi Calm Calm - N/A   Overcast
1:18 AM 57.2 °F 57.2 °F 100% 29.97 in 8.0 mi Calm Calm - N/A   Overcast
1:33 AM 57.2 °F 57.2 °F 100% 29.96 in 8.0 mi ENE 2.3 mph - N/A   Overcast
1:43 AM 57.2 °F 57.2 °F 100% 29.95 in 10.0 mi ESE 4.6 mph - N/A   Overcast
1:48 AM 57.2 °F 57.2 °F 100% 29.95 in 10.0 mi ESE 4.6 mph - N/A   Overcast
1:58 AM 56.8 °F 56.8 °F 100% 29.95 in 8.0 mi ESE 3.5 mph - N/A   Overcast
2:18 AM 57.2 °F 57.2 °F 100% 29.93 in 10.0 mi ESE 3.5 mph - N/A   Overcast
2:32 AM 59.0 °F 59.0 °F 100% 29.93 in 10.0 mi SE 3.5 mph - N/A   Light Drizzle
2:37 AM 59.0 °F 59.0 °F 100% 29.93 in 9.0 mi SE 3.5 mph - N/A   Light Drizzle
2:49 AM 59.0 °F 59.0 °F 100% 29.92 in 8.0 mi SE 3.5 mph - N/A   Overcast
2:58 AM 59.2 °F 59.2 °F 100% 29.93 in 10.0 mi SE 4.6 mph - 0.00 in   Overcast
3:47 AM 64.4 °F 64.4 °F 100% 29.89 in 10.0 mi SSE 8.1 mph - N/A Rain Light Rain
3:58 AM 65.5 °F 65.5 °F 100% 29.90 in 10.0 mi SE 8.1 mph - 0.01 in Rain Light Rain
4:38 AM 68.0 °F 68.0 °F 100% 29.87 in 10.0 mi SSE 10.4 mph - N/A Rain Light Rain
4:58 AM 67.6 °F 67.6 °F 100% 29.86 in 9.0 mi SSE 12.7 mph 20.7 mph 0.08 in Rain Rain
5:03 AM 68.0 °F 68.0 °F 100% 29.86 in 9.0 mi SSE 12.7 mph 20.7 mph N/A Rain Rain
5:13 AM 68.0 °F 68.0 °F 100% 29.86 in 10.0 mi South 10.4 mph 17.3 mph N/A Rain Light Rain
5:18 AM 68.0 °F 68.0 °F 100% 29.85 in 4.0 mi SSE 12.7 mph 18.4 mph N/A Rain Heavy Rain
5:28 AM 68.0 °F 68.0 °F 100% 29.86 in 7.0 mi SSE 10.4 mph 19.6 mph N/A Rain Light Rain
5:33 AM 68.0 °F 68.0 °F 100% 29.86 in 10.0 mi South 9.2 mph 19.6 mph N/A Rain Light Rain
5:43 AM 68.0 °F 68.0 °F 100% 29.86 in 8.0 mi South 8.1 mph - N/A Rain Rain
5:53 AM 68.0 °F 68.0 °F 100% 29.86 in 10.0 mi South 6.9 mph - N/A Rain Light Rain
5:58 AM 68.0 °F 68.0 °F 100% 29.87 in 9.0 mi South 5.8 mph - 0.19 in Rain Rain
6:03 AM 68.0 °F 68.0 °F 100% 29.86 in 9.0 mi South 4.6 mph - N/A Rain Light Rain
6:08 AM 68.0 °F 68.0 °F 100% 29.86 in 9.0 mi SSE 5.8 mph - N/A Rain Light Rain
6:28 AM 68.0 °F 68.0 °F 100% 29.86 in 5.0 mi South 8.1 mph - N/A Rain Rain
6:38 AM 68.0 °F 68.0 °F 100% 29.86 in 5.0 mi South 5.8 mph - N/A Rain Light Rain
6:43 AM 68.0 °F 68.0 °F 100% 29.86 in 6.0 mi SSW 8.1 mph - N/A Rain Rain
6:48 AM 68.0 °F 68.0 °F 100% 29.86 in 3.0 mi South 8.1 mph - N/A Rain Heavy Rain
6:53 AM 68.0 °F 68.0 °F 100% 29.88 in 1.8 mi South 12.7 mph 19.6 mph N/A Rain Heavy Rain
6:58 AM 68.0 °F 68.0 °F 100% 29.90 in 1.0 mi South 15.0 mph 19.6 mph 0.46 in Rain Heavy Rain
7:00 AM 68.0 °F 68.0 °F 100% 29.86 in 0.8 mi SSE 16.1 mph 20.7 mph N/A Rain Heavy Rain
7:05 AM 68.0 °F 68.0 °F 100% 29.87 in 1.0 mi SSE 9.2 mph 20.7 mph N/A Rain Heavy Rain
7:10 AM 68.0 °F 68.0 °F 100% 29.87 in 4.0 mi SSW 11.5 mph - N/A Rain Heavy Rain
7:15 AM 68.0 °F 68.0 °F 100% 29.87 in 7.0 mi SSW 8.1 mph 18.4 mph N/A Rain Light Rain
7:20 AM 68.0 °F 68.0 °F 100% 29.87 in 10.0 mi South 5.8 mph 18.4 mph N/A Rain Rain
7:35 AM 68.0 °F 68.0 °F 100% 29.88 in 9.0 mi South 11.5 mph - N/A Rain Rain
7:58 AM 67.8 °F 67.8 °F 100% 29.88 in 10.0 mi SSW 13.8 mph 18.4 mph 0.46 in Rain Rain
8:31 AM 68.0 °F 68.0 °F 100% 29.89 in 10.0 mi SSW 5.8 mph - N/A   Mostly Cloudy
8:58 AM 67.6 °F 67.6 °F 100% 29.91 in 10.0 mi SSW 6.9 mph - 0.02 in   Overcast
9:53 AM 68.0 °F 68.0 °F 100% 29.89 in 10.0 mi SSW 8.1 mph - N/A   Mostly Cloudy
9:58 AM 68.9 °F 68.9 °F 100% 29.90 in 10.0 mi SSW 6.9 mph - N/A   Mostly Cloudy
10:38 AM 69.8 °F 69.8 °F 100% 29.91 in 10.0 mi SSW 9.2 mph - N/A   Mostly Cloudy
10:40 AM 69.8 °F 69.8 °F 100% 29.91 in 10.0 mi SSW 8.1 mph - N/A Rain Light Rain
10:58 AM 68.9 °F 68.9 °F 100% 29.93 in 10.0 mi SSW 8.1 mph - 0.00 in Rain Light Rain
11:21 AM 69.8 °F 69.8 °F 100% 29.92 in 10.0 mi SW 10.4 mph - N/A   Overcast
11:58 AM 70.0 °F 70.0 °F 100% 29.91 in 10.0 mi SW 12.7 mph - 0.00 in   Overcast
12:03 PM 69.8 °F 69.8 °F 100% 29.90 in 10.0 mi WSW 11.5 mph - N/A   Overcast
12:18 PM 71.6 °F 71.6 °F 100% 29.89 in 10.0 mi WSW 15.0 mph - N/A   Overcast
12:43 PM 71.6 °F 71.6 °F 100% 29.88 in 10.0 mi West 12.7 mph 25.3 mph N/A   Scattered Clouds
12:58 PM 71.2 °F 71.2 °F 100% 29.88 in 10.0 mi West 11.5 mph 21.9 mph N/A   Partly Cloudy
1:55 PM 71.6 °F 71.6 °F 100% 29.87 in 10.0 mi WNW 17.3 mph 23.0 mph N/A   Clear
1:58 PM 71.8 °F 71.8 °F 100% 29.89 in 10.0 mi WNW 12.7 mph 23.0 mph N/A   Clear
2:58 PM 70.0 °F 70.0 °F 100% 29.88 in 10.0 mi West 16.1 mph - N/A   Clear
3:58 PM 68.4 °F 66.9 °F 95% 29.89 in 10.0 mi West 10.4 mph - N/A   Clear
4:58 PM 66.0 °F 66.0 °F 100% 29.91 in 10.0 mi West 6.9 mph - N/A   Clear
5:58 PM 61.5 °F 61.5 °F 100% 29.93 in 10.0 mi West 5.8 mph - N/A   Clear
6:58 PM 59.5 °F 57.6 °F 93% 29.95 in 10.0 mi West 5.8 mph - N/A   Clear
7:58 PM 57.6 °F 55.9 °F 94% 29.97 in 10.0 mi West 8.1 mph - N/A   Clear
8:58 PM 55.0 °F 54.5 °F 98% 29.99 in 10.0 mi West 6.9 mph - N/A   Clear
9:58 PM 53.4 °F 53.4 °F 100% 30.01 in 10.0 mi WNW 6.9 mph - N/A   Scattered Clouds
10:28 PM 53.6 °F 51.8 °F 94% 30.00 in 10.0 mi WNW 8.1 mph - N/A   Mostly Cloudy
10:58 PM 54.5 °F 52.3 °F 92% 30.02 in 10.0 mi NW 3.5 mph - N/A   Overcast
11:28 PM 53.6 °F 51.8 °F 94% 30.02 in 10.0 mi NW 8.1 mph - N/A   Scattered Clouds
11:58 PM 52.2 °F 51.1 °F 96% 30.03 in 10.0 mi WNW 6.9 mph - N/A   Clear